This demonstration page uses our WeatherBlox Daily Observations layout. Learn more.

Left ArrowRight Arrow

34.02893, -84.19858

Hourly Observations for April 18, 2022

Temp ( °F °C ) Dew Point ( °F °C ) Humidity (%) Winds ( mph kmh ) Pressure ( in mb ) Visibility ( mi km ) Precip ( " mm )
12:53 am 00:53 Mostly Cloudy 63 17.2 59 15 87 87 S 3 6 29.90 1013 10 16 0.00 0.00
1:53 am 01:53 Partly Cloudy 64 17.8 61 16.1 90 90 S 6 9 29.87 1012 10 16 0.00 0.00
2:53 am 02:53 Mostly Cloudy 63 17.2 61 16.1 93 93 Calm 29.83 1010 10 16 0.00 0.00
3:39 am 03:39 Mostly Cloudy 63 17.2 61 16.1 93 93 SSE 3 6 29.85 1011 10 16 0.00 0.00
3:53 am 03:53 Cloudy 63 17.2 61 16.1 93 93 Calm 29.83 1010 10 16 0.00 0.00
4:11 am 04:11 Cloudy 63 17.2 61 16.1 93 93 S 3 6 29.85 1011 10 16 0.00 0.00
4:53 am 04:53 Cloudy 63 17.2 61 16.1 93 93 WSW 5 7 29.84 1010 10 16 0.00 0.00
5:29 am 05:29 Cloudy 63 17.2 61 16.1 93 93 WSW 3 6 29.85 1011 10 16 0.00 0.00
5:50 am 05:50 Cloudy 63 17 61 16 94 94 W 3 6 29.86 1011 10 16 0.00 0.00
5:53 am 05:53 Cloudy 63 17.2 61 16.1 93 93 Calm 29.84 1010 10 16 0.00 0.00
5:59 am 05:59 Cloudy 63 17.2 61 16.1 93 93 SW 3 6 29.85 1011 7 11 0.00 0.00
6:23 am 06:23 Cloudy with Light Rain 63 17.2 61 16.1 93 93 WSW 7 11 29.86 1011 10 16 0.01 0.25
6:53 am 06:53 Cloudy 63 17.2 62 16.7 97 97 SW 6 9 29.86 1011 10 16 0.01 0.25
7:53 am 07:53 Cloudy 63 17.2 61 16.1 93 93 WSW 5 7 29.88 1012 10 16 0.00 0.00
8:00 am 08:00 Cloudy 63 17.2 61 16.1 93 93 WSW 7 11 29.89 1012 10 16 0.00 0.00
8:38 am 08:38 Cloudy 63 17.2 61 16.1 93 93 WSW 9 15 29.90 1013 7 11 0.00 0.00
8:53 am 08:53 Cloudy 64 17.8 61 16.1 90 90 W 8 13 29.90 1013 10 16 0.00 0.00
8:55 am 08:55 Cloudy 64 17.8 61 16.1 90 90 W 7 11 29.91 1013 10 16 0.00 0.00
9:02 am 09:02 Cloudy 63 17.2 61 16.1 93 93 W 10 17 29.91 1013 10 16 0.00 0.00
9:48 am 09:48 Cloudy 64 18 61 16 88 88 WNW 5 7 29.92 1013 10 16 0.00 0.00
9:53 am 09:53 Cloudy 64 17.8 61 16.1 90 90 WNW 8 13 29.92 1013 10 16 0.00 0.00
10:53 am 10:53 Cloudy 67 19.4 59 15 76 76 NW 8 13 29.93 1014 10 16 0.00 0.00
11:53 am 11:53 Cloudy 66 18.9 58 14.4 75 75 NW 13 20 29.95 1014 10 16 0.00 0.00
12:00 pm 12:00 Cloudy 66 18.9 58 14.4 75 75 NW 8 13 29.95 1014 10 16 0.00 0.00
12:22 pm 12:22 Cloudy 62 16.7 56 13.3 80 80 VRB 6 9 29.97 1015 10 16 0.00 0.00
12:53 pm 12:53 Cloudy 61 16.1 55 12.8 81 81 NNE 7 11 29.96 1015 10 16 0.00 0.00
1:53 pm 13:53 Cloudy 62 16.7 54 12.2 75 75 NNE 6 9 29.95 1014 10 16 0.00 0.00
2:53 pm 14:53 Mostly Cloudy 64 17.8 56 13.3 75 75 NNW 9 15 29.96 1014 10 16 0.00 0.00
3:53 pm 15:53 Mostly Cloudy 64 17.8 53 11.7 68 68 NW 15 24 29.95 1014 10 16 0.00 0.00
4:00 pm 16:00 Cloudy 64 17.8 53 11.7 68 68 NNW 16 26 29.96 1015 10 16 0.00 0.00
4:21 pm 16:21 Cloudy 62 16.7 53 11.7 73 73 NW 20 31 29.98 1015 10 16 0.00 0.00
4:53 pm 16:53 Cloudy 60 15.6 51 10.6 72 72 NW 13 20 29.98 1015 10 16 0.00 0.00
5:16 pm 17:16 Cloudy 61 16.1 50 10 67 67 NW 13 20 29.99 1016 10 16 0.00 0.00
5:34 pm 17:34 Mostly Cloudy 61 16.1 48 8.9 63 63 NNW 17 28 29.99 1016 10 16 0.00 0.00
5:53 pm 17:53 Partly Cloudy 59 15 46 7.8 62 62 NNW 15 24 30.00 1016 10 16 0.00 0.00
6:53 pm 18:53 Mostly Sunny 59 15 44 6.7 58 58 NW 15 24 30.02 1017 10 16 0.00 0.00
7:53 pm 19:53 Sunny 54 12.2 41 5 62 62 NW 15 24 30.03 1017 10 16 0.00 0.00
8:53 pm 20:53 Clear 52 11.1 40 4.4 64 64 NW 17 28 30.07 1018 10 16 0.00 0.00
9:53 pm 21:53 Clear 50 10 40 4.4 68 68 NW 10 17 30.09 1019 10 16 0.00 0.00
10:53 pm 22:53 Clear 49 9.4 39 3.9 69 69 NNW 13 20 30.10 1019 10 16 0.00 0.00
11:53 pm 23:53 Clear 48 8.9 38 3.3 68 68 NNW 13 20 30.10 1019 10 16 0.00 0.00

Powered by AerisWeather